Home   Weather   Mostar   Past weeks

Flag for Bosnia-Herzegovina Past Weather in Mostar, Bosnia-Herzegovina — Yesterday and Last 2 Weeks

Now
72 °F

Sunny.


Feels Like: 75 °F
Forecast: 64 / 92 °F
Wind: 3 mph from Southeast

Location: Mostar

Current Time: Jun 24, 2017 at 7:24:59 am

Latest Report: Jun 24, 2017 at 7:00 am


Visibility: 10 mi

Pressure: 29.98 "Hg

Humidity: 69%

Dew Point: 61 °F

Location of MostarLocation

Past Weather in Mostar — Graph

°F

Mostar Temperature Yesterday

Maximum temperature yesterday: 95 °F (at 1:30 pm)
Minimum temperature yesterday: 64 °F (at 5:30 am)
Average temperature yesterday: 79 °F

High & Low Weather Summary for the Past Weeks

 TemperatureHumidityPressure
High95 °F (Jun 22, 1:00 pm)100% (Jun 15, 4:00 am)30.09 "Hg (Jun 15, 4:00 am)
Low55 °F (Jun 9, 6:00 am)23% (Jun 11, 2:00 pm)29.83 "Hg (Jun 14, 2:00 pm)
Average77 °F49%29.96 "Hg
* Reported Jun 9 6:00 am — Jun 24 6:00 am, Mostar. Weather by CustomWeather, © 2017

Note: Actual official high and low records may vary slightly from our data, if they occured in-between our weather recording intervals... More about our weather records

Advertising

Mostar Weather History for the Previous 24 Hours

Scroll right to see more
 ConditionsComfort  
Time TempWeatherWind HumidityBarometerVisibility
6:00 am
Sat, Jun 24
70 °FPassing clouds.3 mph73%29.98 "HgN/A
5:00 am70 °FPassing clouds.5 mph73%29.98 "HgN/A
4:00 am70 °FPassing clouds.7 mph73%29.98 "HgN/A
3:00 am72 °FClear.1 mph69%29.98 "Hg10 mi
2:00 am73 °FClear.3 mph65%29.98 "Hg10 mi
1:00 am75 °FPassing clouds.3 mph61%29.98 "HgN/A
12:00 am75 °FClear.2 mph61%29.95 "Hg10 mi
11:00 pm
Fri, Jun 23
79 °FClear.5 mph54%29.98 "Hg10 mi
10:00 pm81 °FClear.1 mph51%29.95 "Hg10 mi
9:00 pm81 °FClear.6 mph54%29.95 "Hg10 mi
8:00 pm86 °FPassing clouds.6 mph46%29.95 "HgN/A
7:00 pm88 °FPassing clouds.9 mph40%29.92 "HgN/A
6:00 pm91 °FPassing clouds.10 mph36%29.92 "HgN/A
5:00 pm93 °FPassing clouds.10 mph34%29.92 "HgN/A
4:30 pm93 °FPassing clouds.9 mph32%29.92 "HgN/A
3:30 pm95 °FPassing clouds.13 mph32%29.95 "HgN/A
3:00 pm95 °FPassing clouds.12 mph32%29.95 "HgN/A
2:30 pm93 °FPassing clouds.13 mph34%29.95 "HgN/A
2:00 pm95 °FPassing clouds.8 mph30%29.95 "HgN/A
1:30 pm95 °FPassing clouds.7 mph32%29.95 "HgN/A
1:00 pm93 °FPassing clouds.7 mph32%29.98 "HgN/A
12:30 pm91 °FPassing clouds.5 mph36%29.98 "HgN/A
12:00 pm91 °FPassing clouds.5 mph36%30.01 "HgN/A
11:30 am90 °FSunny.3 mph38%30.01 "Hg10 mi
11:00 am88 °FSunny.3 mph40%30.01 "Hg10 mi
10:30 am86 °FSunny.3 mph43%30.01 "Hg10 mi
10:00 am82 °FSunny.2 mph48%30.01 "Hg10 mi
9:30 am79 °FSunny.2 mph54%30.04 "Hg10 mi
9:00 am77 °FSunny.2 mph57%30.04 "Hg10 mi
8:30 am75 °FSunny.2 mph61%30.04 "Hg10 mi
8:00 am73 °FPassing clouds.3 mph65%30.04 "HgN/A
7:30 am70 °FSunny.1 mph73%30.01 "Hg10 mi
7:00 am68 °FSunny.1 mph73%30.01 "Hg10 mi
Weather by CustomWeather, © 2017

See weather overviewHow to use our weather pages